This is the latest recevied weather packets stored in our database for station/object W4MSI. If no packets are shown the sender has not sent any weather packets the latest 10 day(s).
| Time | Temp. | Humidity | Pressure | Rain* | Wind** | Luminosity | Snow |
|---|---|---|---|---|---|---|---|
| 1777815353 | 12.22° C | 68% | 1021.1 hPa | 0 mm | - | 754 W/m² | - |
| 1777815049 | 11.67° C | 70% | 1021 hPa | 0 mm | - | 719 W/m² | - |
| 1777814746 | 11.11° C | 71% | 1021.1 hPa | 0 mm | - | 500 W/m² | - |
| 1777814443 | 11.67° C | 74% | 1021 hPa | 0 mm | - | 403 W/m² | - |
| 1777814140 | 11.67° C | 71% | 1020.9 hPa | 0 mm | - | 304 W/m² | - |
| 1777813837 | 11.67° C | 73% | 1021.1 hPa | 0 mm | - | 245 W/m² | - |
| 1777813534 | 11.67° C | 78% | 1021.3 hPa | 0 mm | - | 221 W/m² | - |
| 1777813232 | 11.11° C | 77% | 1020.8 hPa | 0 mm | - | 189 W/m² | - |
| 1777812929 | 10.56° C | 80% | 1020.8 hPa | 0 mm | - | 162 W/m² | - |
| 1777812626 | 10.56° C | 82% | 1021 hPa | 0 mm | - | 151 W/m² | - |
| 1777812322 | 10° C | 86% | 1021 hPa | 0 mm | - | 133 W/m² | - |
| 1777812021 | 10° C | 92% | 1021 hPa | 0 mm | - | 118 W/m² | - |
| 1777811720 | 10° C | 95% | 1020.9 hPa | 0 mm | - | 112 W/m² | - |
| 1777811415 | 8.89° C | 98% | 1021 hPa | 0 mm | - | 100 W/m² | - |
| 1777811112 | 7.78° C | 99% | 1020.8 hPa | 0 mm | - | 90 W/m² | - |
| 1777810810 | 7.78° C | 98% | 1021 hPa | 0 mm | - | 86 W/m² | - |
| 1777810506 | 7.78° C | 99% | 1020.7 hPa | 0 mm | - | 77 W/m² | - |
| 1777810202 | 6.67° C | 99% | 1020.8 hPa | 0 mm | - | 70 W/m² | - |
| 1777809899 | 6.11° C | 99% | 1020.7 hPa | 0 mm | - | 66 W/m² | - |
| 1777809597 | 6.11° C | 99% | 1020.6 hPa | 0 mm | - | 59 W/m² | - |
| 1777809295 | 5.56° C | 99% | 1020.7 hPa | 0 mm | - | 53 W/m² | - |
| 1777808992 | 5.56° C | 99% | 1020.7 hPa | 0 mm | - | 50 W/m² | - |
| 1777808689 | 5.56° C | 99% | 1020.5 hPa | 0 mm | - | 44 W/m² | - |
| 1777808385 | 5° C | 99% | 1020.4 hPa | 0 mm | - | 38 W/m² | - |
| 1777808084 | 5° C | 99% | 1020.3 hPa | 0 mm | - | 35 W/m² | - |
* Rain latest hour (hover to see other rain measurements)
** Current wind speed in m/s (hover to see current wind gust speed)